Location: Newark
(8.1700°N, 77.4300°E)
Time: 02:01:00
(UTC+00:00)

Envisat - Visible Passes

Search period start: 19 August 2019 00:00
Search period end: 29 August 2019 00:00
Orbit: 764 x 766 km, 98.1° (Epoch: 17 August)

Date Brightness Start Highest point End Pass type
(mag) Time Alt. Az. Time Alt. Az. Time Alt. Az.
19 Aug 4.7 14:01:52 10° SSW 14:06:25 34° W 14:10:59 10° NW visible
20 Aug 3.0 13:24:40 10° SSE 13:29:45 83° ENE 13:34:49 10° N visible
21 Aug 5.8 14:28:45 10° SW 14:31:54 17° W 14:35:02 10° WNW visible
22 Aug 4.1 13:50:21 10° S 13:55:12 46° W 14:00:02 10° NNW visible
23 Aug 3.1 13:13:32 10° SSE 13:18:31 61° ENE 13:23:30 10° N visible
24 Aug 5.4 14:16:46 10° SSW 14:20:40 22° W 14:24:34 10° NW visible
25 Aug 3.5 13:38:57 10° S 13:43:58 64° WSW 13:48:58 10° NNW visible
26 Aug 6.2 14:45:29 10° WSW 14:46:08 10° W 14:46:48 10° W visible
27 Aug 4.9 14:05:01 10° SSW 14:09:26 30° W 14:13:50 10° NW visible
28 Aug 3.1 13:27:40 10° S 13:32:44 87° WSW 13:37:48 10° NNW visible
